Aérodrome :
LOGIN :

S'inscrire | Disclaimer

   EN    FR    IT 

 










Légende :    VFR   VFR Marginal   IFR   IFR Intensif   IFR Très Intensif
Visi : 
Plafond : 
>= 8 km
>= 3000ft
5 à 8 km
1000 à 3000 ft
1500m à 5 km
500 à 1000 ft
800 à 1500m
200 à 500 ft
< 800m
< 200 ft
Symboles :   Orages  Brouillard  Fortes neiges  Fortes précipitations  Vent > 20 kt
SIGMETs :   Divers  Orages  Givrage  Turbulence  Onde Orograph.  Cendres Volcan.






- Altitude de l'aérodrome : 751 ft
- Code IATA : ENC


LFSN - Nancy Essey

DERNIER METAR :
  • 221600Z AUTO 36003KT 330V030 9999 FEW011 BKN016 BKN039 03/02 Q0995

METARs EXPIRÉS :
  • 221530Z AUTO 01003KT 330V040 9999 -RA BKN010 BKN014 OVC037 04/02 Q0995
  • 221500Z AUTO 04004KT 020V090 9999 -RA BKN009/// BKN014/// OVC034/// ///TCU 04/02 Q0995
  • 221430Z AUTO 05006KT 9999 -RA OVC011/// ///TCU 03/02 Q0995
  • 221400Z AUTO 05006KT 020V080 9000 -RA OVC010 04/03 Q0995
  • 221330Z AUTO 05005KT 9999 -RA BKN009/// OVC042/// ///TCU 04/02 Q0995

Prévision TAF périmée.



MET'MAP, la Météo Aéronautique d'un coup d'oeil ! - Copyright ORBIFLY Décembre 2007 - Disclaimer

ORBIFLY MET'MAP TEAM :

Programmation & Développement : Alexandra Zaïnal
Sur une idée originale de : Baudouin d'Aumeries
Assistance à la programmation : Marc-Olivier Méhu
Soutien technique & logistique : Manuel Goepfert

Contact : metmap@orbifly.com




SOURCES & CREDITS :

   NOAA